Station 41037 - Wrightsville Beach Offshore, NC (ILM3) Image indicating link to RSS feed of recent meteorological observations for station 41037


Conditions at 41037 as of
(9:08 am EDT)
1308 GMT on 05/24/2024:
     

Click on the graph icon in the table below to see a time series plot of the last five days of that observation.

5-day plot - Wind Direction Wind Direction (WDIR): SW ( 230 deg true )
5-day plot - Wind Speed Wind Speed (WSPD): 7.8 kts
5-day plot - Wind Gust Wind Gust (GST): 11.7 kts
5-day plot - Atmospheric Pressure Atmospheric Pressure (PRES):29.95 in
5-day plot - Air Temperature Air Temperature (ATMP): 74.5 °F
5-day plot - Water Temperature Water Temperature (WTMP): 73.2 °F
5-day plot - Dew Point Dew Point (DEWP): 70.3 °F
5-day plot - Wind Speed at 10 Meters Wind Speed at 10 meters (WSPD10M): 9.7 kts
5-day plot - Wind Speed at 20 Meters Wind Speed at 20 meters (WSPD20M): 11.7 kts
5-day plot -  Wind Speed, Wind Gust and Atmospheric Pressure Combined plot of Wind Speed, Gust, and Air Pressure
Previous observations
TIME
(EDT)
5-day plot - Wind Direction
WDIR
 
5-day plot - Wind Speed
WSPD
kts
5-day plot - Wind Gust
GST
kts
5-day plot - Wave Height
WVHT
ft
5-day plot - Dominant Wave Period
DPD
sec
5-day plot - Average Wave Period
APD
sec
5-day plot - Mean Wave Direction
MWD
 
5-day plot - Atmospheric Pressure
PRES
in
5-day plot - Pressure Tendency
PTDY
in
5-day plot - Air Temperature
ATMP
°F
5-day plot - Water Temperature
WTMP
°F
5-day plot - Dew Point
DEWP
°F
5-day plot - Salinity
SAL
psu
5-day plot - Visibility
VIS
nmi
5-day plot - Tide (above MLLW)
TIDE
ft
2024-05-24 08:08 am S 5.8 9.7----29.96- 74.1 73.0 70.2---
2024-05-24 07:08 amSSW 5.8 9.7----29.96- 73.9 73.2 70.0---
2024-05-24 06:08 amWSW 7.8 7.8----29.93- 74.1 73.4 69.8---
2024-05-24 05:08 am SW 7.8 9.7----29.93- 74.1 73.4 69.8---
2024-05-24 04:08 amWSW 7.8 11.7----29.95- 74.1 73.0 69.4---
2024-05-24 03:08 amSSW 9.7 13.6----29.96- 74.5 73.2 69.8---
2024-05-24 02:08 am SW 9.7 13.6----29.97- 74.7 73.4 70.0---
2024-05-24 01:08 amSSW 9.7 11.7----29.97- 74.5 73.4 70.2---
2024-05-24 12:08 amSSW 9.7 11.7----29.98- 74.7 73.4 70.2---
2024-05-23 11:08 pm S 9.7 11.7----29.99- 75.0 73.4 70.0---
2024-05-23 10:08 pm S 9.7 13.6----29.99- 75.4 73.4 69.6---
2024-05-23 09:08 pm S 9.7 11.7----29.97- 75.6 73.9 70.2---
2024-05-23 08:08 pm S 11.7 13.6----29.96- 75.6 74.1 69.8---
2024-05-23 07:08 pm S 11.7 15.5----29.96- 75.6 74.3 69.8---
2024-05-23 06:08 pm S 9.7 13.6----29.98- 75.7 74.7 69.4---
2024-05-23 05:08 pm S 9.7 13.6----29.98- 75.7 74.8 69.3---
2024-05-23 04:08 pm S 11.7 13.6----30.00- 75.6 74.8 69.1---
2024-05-23 03:08 pm S 7.8 9.7----30.01- 75.6 74.7 69.1---
2024-05-23 02:08 pmSSW 7.8 9.7----30.05- 75.2 74.3 68.5---
2024-05-23 01:08 pmSSW 7.8 9.7----30.06- 74.7 74.3 68.9---
2024-05-23 12:08 pmSSW 5.8 7.8----30.05- 74.7 74.3 68.9---
2024-05-23 11:08 amSSW 5.8 5.8----30.06- 74.3 73.9 68.9---
2024-05-23 10:08 am SW 3.9 5.8----30.06- 73.6 73.4 69.3---